Location: Newark
(45.2500°N, 7.5833°E)
Time: 01:11:53
(UTC+00:00)

SR - Pass Details

Date: 03 February 2020
Orbit: 575 x 880 km, 66.7° (Epoch: 26 February)

Event Time Altitude Azimuth Distance (km) Brightness Sun altitude
Exits shadow 05:32:15 20° 283° (WNW) 1,719 ? -13.7°
Maximum altitude 05:34:07 24° 253° (WSW) 1,504 ? -13.4°
Drops below altitude 10° 05:38:06 10° 199° (SSW) 2,179 ? -12.7°
Sets 05:40:42 0° 186° (S) 3,037 ? -12.2°
